{"data":{"norad_id":66032,"intl_designator":"2025-232AD","name":"STARLINK-35311","alt_names":[],"object_type":"PAYLOAD","status":"ACTIVE","operator":null,"country":"US","launch_date":"2025-10-16","launch_site_code":"AFETR","launch_vehicle":null,"mission":null,"orbit_class":"UNKNOWN","rcs_meters":null,"size_class":null,"mass_kg":null,"dimensions":null,"purposes":["comms"],"wikipedia_slug":null,"has_3d_model":false,"image_url":null,"decayed_at":null,"tle_current":{"epoch":"2026-05-25T03:40:48.991584Z","epoch_age_seconds":61239,"freshness":"FRESH","line1":"1 66032U 25232AD  26145.15334481  .00021917  00000+0  65760-3 0  9994","line2":"2 66032  53.1606 108.6423 0001023 131.9415 228.1675 15.34415151 35148","mean_motion":15.34415151,"eccentricity":0.0001023,"inclination_deg":53.1606,"raan_deg":108.6423,"arg_perigee_deg":131.9415,"mean_anomaly_deg":228.1675,"bstar":0.0006576,"rev_number":3514,"period_min":93.846831417269,"perigee_km":461.95839526288,"apogee_km":463.35802196256,"semimajor_km":6840.7952086127,"source":"CELESTRAK","updated_at":"2026-05-25T13:38:21.019355Z"}}}